Location: Chiroubles
(46.1812°N, 4.6660°E)
Time: 16:05:35
(UTC+00:00)

Meteor 1-11 Rocket - Pass Details

Date: 15 August 2020
Orbit: 832 x 915 km, 81.2° (Epoch: 23 September)

Event Time Altitude Azimuth Distance (km) Brightness Sun altitude
Exits shadow 21:31:49 52° 152° (SSE) 1,071 3.8 -23.0°
Maximum altitude 21:33:03 67° 96° (E) 947 3.7 -23.1°
Drops below altitude 10° 21:38:48 10° 16° (NNE) 2,560 6.7 -23.7°
Sets 21:41:18 0° 14° (NNE) 3,516 7.5 -23.9°
